Location: Los Gatos B&B
(42.6926°N, 77.0646°W)
Time: 01:40:47
(UTC-04:00)

Amateur Radio Satellites - All Passes

Search period start: 18 September 2014 01:10
Search period end: 19 September 2014 01:10
Location: Los Gatos B&B, 42.6926°N, 77.0646°W

Satellite Date Start Highest point End Downlink Frequencies (MHz)
Time Altitude Azimuth
Oscar 16 18 Sep 01:31:07 01:34:07 15° 90° (E) 01:37:06 437.025 USB, Beacon 2401.1428
AO-Echo 18 Sep 02:00:19 02:02:30 13° 90° (E) 02:04:43 ?
KITSAT 1 18 Sep 02:00:27 02:04:33 14° 14° (NNE) 02:08:39 435.175 FM
Saudisat 1A 18 Sep 02:10:16 02:14:22 36° 48° (NE) 02:18:26 436.775 MHz
ITAMSAT 1 18 Sep 02:10:31 02:13:25 15° 90° (E) 02:16:19 435.822 SSB
Uribyol 2 18 Sep 02:14:47 02:18:15 18° 91° (E) 02:21:42 436.500 FM
UOSAT-12 18 Sep 02:18:06 02:22:17 32° 314° (NW) 02:26:31 437.025 FM, 437.400 FM
Oscar 19 18 Sep 02:30:19 02:35:24 54° 100° (E) 02:40:25 437.125 CW, 437.150 USB
AO-27 18 Sep 02:43:42 02:48:19 31° 96° (E) 02:52:54 436.795 MHz FM
JAS-1B 18 Sep 03:04:07 03:09:46 51° 100° (E) 03:15:16 435.800 - 435.900 CW/SSB
Oscar 16 18 Sep 03:08:48 03:13:57 67° 287° (WNW) 03:19:03 437.025 USB, Beacon 2401.1428
OPAL 18 Sep 03:11:41 03:13:25 12° 54° (NE) 03:15:08 ?
ISS 18 Sep 03:16:16 03:19:04 25° 136° (SE) 03:21:53 145.800 FM
Gurwin Techsat 1B 18 Sep 03:25:28 03:30:22 37° 97° (E) 03:35:14 435.225 FM
AO-Echo 18 Sep 03:36:56 03:41:44 71° 286° (WNW) 03:46:40 ?
ITAMSAT 1 18 Sep 03:48:13 03:53:25 70° 287° (WNW) 03:58:35 435.822 SSB
Saudisat 1A 18 Sep 03:50:05 03:53:48 27° 246° (WSW) 03:57:30 436.775 MHz
Uribyol 2 18 Sep 03:52:58 03:58:07 60° 288° (WNW) 04:03:14 436.500 FM
KITSAT 1 18 Sep 03:55:36 04:02:53 35° 42° (NE) 04:10:06 435.175 FM
TMSAT-1 18 Sep 04:03:31 04:08:47 60° 101° (E) 04:14:01 436.925 FM
Oscar 19 18 Sep 04:10:34 04:14:20 21° 298° (WNW) 04:18:05 437.125 CW, 437.150 USB
AO-27 18 Sep 04:23:09 04:27:48 34° 293° (WNW) 04:32:28 436.795 MHz FM
RS-15 18 Sep 04:25:52 04:36:11 48° 111° (ESE) 04:46:21 29.354 - 29.394 USB, Beacon 29.352 USB
Oscar 10/S400 18 Sep 04:36:09 05:28:17 16° 252° (WSW) 07:03:52 145.825 - 145.975 CW/USB, Beacon 145.810 USB
AO-7 18 Sep 04:37:19 04:44:31 32° 96° (E) 04:51:40 29.400 - 29.500 MHz
Uosat F 18 Sep 04:45:51 04:50:02 26° 95° (E) 04:54:11 435.120 FM
OPAL 18 Sep 04:46:14 04:51:24 77° 72° (ENE) 04:56:38 ?
ISS 18 Sep 04:52:26 04:55:39 44° 333° (NNW) 04:58:52 145.800 FM
JAS-1B 18 Sep 04:55:41 05:00:05 23° 300° (WNW) 05:04:21 435.800 - 435.900 CW/SSB
Gurwin Techsat 1B 18 Sep 05:05:38 05:10:13 30° 294° (WNW) 05:14:46 435.225 FM
STRAND 1 18 Sep 05:28:09 05:29:57 12° 57° (ENE) 05:31:45 ?
TMSAT-1 18 Sep 05:44:32 05:48:13 20° 298° (WNW) 05:51:55 436.925 FM
JAS-2 18 Sep 05:48:59 05:53:18 20° 93° (E) 05:57:56 435.800 - 435.900 CW/SSB, 435.910 FM
KITSAT 1 18 Sep 05:50:50 05:58:49 66° 244° (WSW) 06:06:45 435.175 FM
Uosat F 18 Sep 06:24:16 06:28:54 38° 292° (WNW) 06:33:31 435.120 FM
OPAL 18 Sep 06:28:18 06:30:50 14° 269° (W) 06:33:24 ?
AO-7 18 Sep 06:29:36 06:37:41 60° 295° (WNW) 06:45:45 29.400 - 29.500 MHz
ISS 18 Sep 06:30:33 06:32:59 18° 353° (N) 06:35:25 145.800 FM
RS-15 18 Sep 06:37:39 06:48:22 55° 314° (NW) 06:59:05 29.354 - 29.394 USB, Beacon 29.352 USB
STRAND 1 18 Sep 07:03:15 07:08:20 85° 75° (ENE) 07:13:27 ?
Hamsat 18 Sep 07:03:23 07:07:41 77° 102° (ESE) 07:11:53 145.90 MHz
SO-50 18 Sep 07:19:22 07:23:54 40° 49° (NE) 07:28:29 436.795 FM
JAS-2 18 Sep 07:32:51 07:38:42 67° 287° (WNW) 07:45:18 435.800 - 435.900 CW/SSB, 435.910 FM
KITSAT 1 18 Sep 07:50:17 07:52:38 11° 263° (W) 07:54:58 435.175 FM
ISS 18 Sep 08:07:56 08:10:34 21° 13° (NNE) 08:13:11 145.800 FM
SO-67 18 Sep 08:09:13 08:12:39 60° 100° (E) 08:16:03 435.3500 MHz FM
AO-7 18 Sep 08:24:44 08:28:47 15° 316° (NW) 08:32:51 29.400 - 29.500 MHz
Hamsat 18 Sep 08:41:53 08:42:59 11° 299° (WNW) 08:44:05 145.90 MHz
STRAND 1 18 Sep 08:46:37 08:48:10 11° 272° (W) 08:49:44 ?
RS-15 18 Sep 08:55:25 09:03:55 25° 345° (NNW) 09:12:31 29.354 - 29.394 USB, Beacon 29.352 USB
SO-50 18 Sep 09:00:14 09:04:19 28° 246° (WSW) 09:08:26 436.795 FM
UOSAT-12 18 Sep 09:06:32 09:11:00 39° 49° (NE) 09:15:24 437.025 FM, 437.400 FM
HO-68 18 Sep 09:08:07 09:13:46 25° 93° (E) 09:19:24 435.675 MHz FM
MaSat-1 18 Sep 09:10:53 09:15:53 72° 114° (ESE) 09:20:51 437.345 MHz
JAS-2 18 Sep 09:21:22 09:22:55 11° 304° (NW) 09:24:31 435.800 - 435.900 CW/SSB, 435.910 FM
ISS 18 Sep 09:44:23 09:47:43 72° 32° (NNE) 09:51:02 145.800 FM
Oscar 11 18 Sep 10:07:12 10:10:38 22° 94° (E) 10:14:02 145.825 FM, Beacon 2401.500 USB
UKube-1 18 Sep 10:21:48 10:25:57 42° 99° (E) 10:30:05 145.840 MHz, 145.915 MHz
UOSAT-12 18 Sep 10:47:01 10:50:59 27° 247° (WSW) 10:54:54 437.025 FM, 437.400 FM
MaSat-1 18 Sep 10:49:38 10:53:09 19° 311° (NW) 10:56:37 437.345 MHz
HO-68 18 Sep 10:54:52 11:01:58 66° 291° (WNW) 11:09:03 435.675 MHz FM
RS-15 18 Sep 11:12:18 11:21:16 27° 21° (NNE) 11:30:25 29.354 - 29.394 USB, Beacon 29.352 USB
ISS 18 Sep 11:22:08 11:24:03 15° 229° (SW) 11:25:58 145.800 FM
FUNcube-1 18 Sep 11:28:07 11:32:46 70° 102° (ESE) 11:37:20 145.950 - 145.970 MHz USB
Oscar 11 18 Sep 11:42:57 11:46:52 34° 290° (WNW) 11:50:46 145.825 FM, Beacon 2401.500 USB
UKube-1 18 Sep 11:58:46 12:01:51 19° 296° (WNW) 12:04:56 145.840 MHz, 145.915 MHz
JAS-1B 18 Sep 12:04:44 12:06:49 11° 52° (NE) 12:08:48 435.800 - 435.900 CW/SSB
Sapphire 18 Sep 12:10:27 12:14:47 25° 108° (ESE) 12:19:08 437.095 MHz 1200 baud AX-25 AFSK
Oscar 19 18 Sep 12:12:39 12:14:31 12° 57° (ENE) 12:16:23 437.125 CW, 437.150 USB
PCSat 18 Sep 12:36:39 12:41:46 45° 113° (ESE) 12:46:56 145.825 MHz
HO-68 18 Sep 12:44:59 12:48:21 14° 311° (NW) 12:51:42 435.675 MHz FM
Oscar 16 18 Sep 12:48:25 12:52:37 26° 64° (ENE) 12:56:50 437.025 USB, Beacon 2401.1428
FUNcube-1 18 Sep 13:06:14 13:08:33 14° 299° (WNW) 13:10:51 145.950 - 145.970 MHz USB
AO-Echo 18 Sep 13:13:57 13:17:14 19° 64° (ENE) 13:20:30 ?
RS-15 18 Sep 13:25:13 13:36:16 66° 51° (NE) 13:47:42 29.354 - 29.394 USB, Beacon 29.352 USB
ITAMSAT 1 18 Sep 13:28:53 13:33:04 26° 64° (ENE) 13:37:16 435.822 SSB
Uribyol 2 18 Sep 13:33:10 13:37:35 29° 66° (ENE) 13:42:01 436.500 FM
JAS-1B 18 Sep 13:47:49 13:56:11 56° 70° (ENE) 14:03:12 435.800 - 435.900 CW/SSB
Oscar 19 18 Sep 13:47:49 13:53:01 83° 75° (ENE) 13:58:15 437.125 CW, 437.150 USB
TMSAT-1 18 Sep 13:48:25 13:51:10 14° 59° (ENE) 13:53:55 436.925 FM
AO-7 18 Sep 13:51:33 13:53:59 12° 40° (NE) 13:56:25 29.400 - 29.500 MHz
Sapphire 18 Sep 13:52:40 13:57:53 49° 306° (NW) 14:03:10 437.095 MHz 1200 baud AX-25 AFSK
AO-27 18 Sep 14:02:31 14:07:30 51° 71° (ENE) 14:12:31 436.795 MHz FM
PCSat 18 Sep 14:20:38 14:25:21 30° 312° (NW) 14:30:06 145.825 MHz
Oscar 16 18 Sep 14:26:49 14:31:43 42° 262° (W) 14:36:40 437.025 USB, Beacon 2401.1428
Gurwin Techsat 1B 18 Sep 14:47:13 14:52:26 62° 72° (ENE) 14:57:41 435.225 FM
Oscar 10/S400 18 Sep 14:49:11 15:03:05 20° 146° (SE) 15:16:19 145.825 - 145.975 CW/USB, Beacon 145.810 USB
AO-Echo 18 Sep 14:51:04 14:55:40 49° 260° (W) 15:00:15 ?
ITAMSAT 1 18 Sep 15:07:27 15:12:19 42° 261° (W) 15:17:14 435.822 SSB
Uribyol 2 18 Sep 15:12:12 15:16:56 36° 263° (W) 15:21:42 436.500 FM
TMSAT-1 18 Sep 15:25:05 15:30:22 83° 256° (WSW) 15:35:42 436.925 FM
Oscar 19 18 Sep 15:31:00 15:33:00 12° 272° (W) 15:35:00 437.125 CW, 437.150 USB
AO-7 18 Sep 15:36:56 15:44:45 48° 62° (ENE) 15:52:33 29.400 - 29.500 MHz
RS-15 18 Sep 15:38:11 15:48:02 39° 252° (WSW) 15:58:17 29.354 - 29.394 USB, Beacon 29.352 USB
JAS-1B 18 Sep 15:39:15 15:46:52 33° 264° (W) 15:53:30 435.800 - 435.900 CW/SSB
Sapphire 18 Sep 15:41:07 15:42:41 11° 328° (NNW) 15:44:16 437.095 MHz 1200 baud AX-25 AFSK
AO-27 18 Sep 15:43:32 15:47:18 20° 267° (W) 15:51:06 436.795 MHz FM
Uosat F 18 Sep 15:59:46 16:04:22 39° 68° (ENE) 16:09:00 435.120 FM
Gurwin Techsat 1B 18 Sep 16:29:23 16:32:50 17° 269° (W) 16:36:17 435.225 FM
OPAL 18 Sep 16:56:38 17:00:11 19° 94° (E) 17:03:42 ?
MaSat-1 18 Sep 17:28:02 17:30:41 17° 47° (NE) 17:33:05 437.345 MHz
AO-7 18 Sep 17:29:53 17:37:35 41° 261° (W) 17:45:20 29.400 - 29.500 MHz
Uosat F 18 Sep 17:39:11 17:43:16 25° 265° (W) 17:47:22 435.120 FM
JAS-2 18 Sep 17:46:48 17:51:56 54° 71° (ENE) 17:56:59 435.800 - 435.900 CW/SSB, 435.910 FM
Saudisat 1A 18 Sep 17:56:20 18:00:41 64° 121° (ESE) 18:05:04 436.775 MHz
Hamsat 18 Sep 17:57:03 18:01:20 59° 74° (ENE) 18:05:38 145.90 MHz
KITSAT 1 18 Sep 18:28:19 18:32:56 17° 100° (E) 18:37:34 435.175 FM
OPAL 18 Sep 18:34:21 18:39:25 57° 291° (WNW) 18:44:25 ?
SO-67 18 Sep 18:43:20 18:46:04 22° 70° (ENE) 18:48:48 435.3500 MHz FM
MaSat-1 18 Sep 19:04:07 19:07:45 40° 251° (WSW) 19:10:52 437.345 MHz
STRAND 1 18 Sep 19:13:35 19:17:55 27° 95° (E) 19:22:14 ?
JAS-2 18 Sep 19:34:01 19:37:27 17° 268° (W) 19:40:52 435.800 - 435.900 CW/SSB, 435.910 FM
Hamsat 18 Sep 19:35:38 19:37:40 13° 270° (W) 19:39:42 145.90 MHz
Saudisat 1A 18 Sep 19:37:31 19:40:41 19° 320° (NW) 19:43:51 436.775 MHz
HO-68 18 Sep 19:38:38 19:43:46 22° 55° (NE) 19:48:54 435.675 MHz FM
PCSat 18 Sep 19:43:13 19:43:58 10° 31° (NNE) 19:44:43 145.825 MHz
SO-67 18 Sep 20:16:21 20:19:01 21° 266° (W) 20:21:43 435.3500 MHz FM
KITSAT 1 18 Sep 20:19:00 20:27:05 82° 119° (ESE) 20:35:13 435.175 FM
STRAND 1 18 Sep 20:52:28 20:57:11 38° 292° (WNW) 21:01:54 ?
Sapphire 18 Sep 20:56:47 21:01:24 27° 47° (NE) 21:05:59 437.095 MHz 1200 baud AX-25 AFSK
Oscar 11 18 Sep 21:03:19 21:06:33 21° 66° (ENE) 21:09:48 145.825 FM, Beacon 2401.500 USB
UKube-1 18 Sep 21:17:59 21:22:03 41° 70° (ENE) 21:26:08 145.840 MHz, 145.915 MHz
HO-68 18 Sep 21:23:32 21:30:40 81° 254° (WSW) 21:37:52 435.675 MHz FM
PCSat 18 Sep 21:23:40 21:28:52 44° 53° (NE) 21:34:02 145.825 MHz
KITSAT 1 18 Sep 22:16:33 22:23:24 29° 322° (NW) 22:30:17 435.175 FM
FUNcube-1 18 Sep 22:25:03 22:29:22 60° 74° (ENE) 22:33:50 145.950 - 145.970 MHz USB
Oscar 11 18 Sep 22:38:24 22:42:29 39° 262° (W) 22:46:35 145.825 FM, Beacon 2401.500 USB
Sapphire 18 Sep 22:39:50 22:45:06 51° 246° (WSW) 22:50:19 437.095 MHz 1200 baud AX-25 AFSK
UKube-1 18 Sep 22:55:24 22:58:25 18° 267° (W) 23:01:28 145.840 MHz, 145.915 MHz
PCSat 18 Sep 23:07:29 23:12:04 28° 251° (WSW) 23:16:37 145.825 MHz
SO-50 18 Sep 23:15:07 23:19:35 83° 123° (ESE) 23:24:12 436.795 FM
HO-68 18 Sep 23:16:01 23:19:25 14° 273° (W) 23:22:50 435.675 MHz FM
FUNcube-1 19 Sep 00:04:05 00:06:12 13° 271° (W) 00:08:19 145.950 - 145.970 MHz USB
KITSAT 1 19 Sep 00:18:26 00:22:05 13° 351° (N) 00:25:44 435.175 FM
Saudisat 1A 19 Sep 00:44:37 00:46:18 12° 33° (NNE) 00:47:58 436.775 MHz
SO-50 19 Sep 00:57:50 01:00:47 17° 323° (NW) 01:03:47 436.795 FM
UOSAT-12 19 Sep 00:57:53 01:02:29 77° 122° (ESE) 01:07:13 437.025 FM, 437.400 FM
